Hauptseite
METAR-TAF:

METAR-TAF

Flughäfen :

RAF Spadeadam

Spadeadam, England

Breite: 55-03N, Länge: 002-33W, Höhe: 325 m

Beobachtung

Neuester Wetterbericht von vor 24 Minuten, um 09:50 UTC
Wind 20 kt aus West/Südwest
Temperatur 14°C
Luftfeuchtigkeit 100%
Luftdruck 1013 hPa
Sichtweite: 3600 m
Leichtregen

METAR: EGOM 180950Z AUTO 24020KT 3600 -RA OVC002/// 14/14 Q1013

Zeit: 11:14 (10:14 UTC)


TAF: fehlend

Wetterbeobachtungen und Prognosen von mehr als 4000 Flughäfen (METAR und TAF Bericht).

Die verfügbaren Stationen werden durch gelbe und rote Markierungen auf der Karte dargestellt.

Führen Sie die Maus auf sie, um den Namen der Station zu sehen.

Darauf klicken, um die Beobachtung von Wetterbeobachtungen und Prognosen zu sehen.

Um die Karte zu ändern : klicken Sie auf den grünen Tasten mit einem schwarzen Kreuz Zum Vergrößern, auf den grünen Button mit einem Gedankenstrich zu verkleinern, oder auf die grünen Pfeile für benachbarte Karten.


METAR-TAF: